Starlink 31039

operational
NORAD ID: 58784 Int'l Des: 2024-011 Owner: SPXS Country: US Constellation: starlink
LEOCIRCULAR

关于 Starlink 31039

正在加载描述...

实时位置

正在加载3D地球...

即将过境

高度历史

Altitude vs Time

uPlot chart will show altitude changes over time

两行轨道根数

1 58784U 24011V 25305.11528368 -.00000414 00000-0 -18542-5 0 9995
2 58784 53.1582 250.9739 0001037 91.3062 268.8058 15.30185112100583
Epoch: Nov 1, 2025 • Age: 35 hours

当前状态

高度 476.2 km
速度 7.63 km/s
星下点 28.46°N, 150.1°E
发射日期 Jan 14, 2024
运行时间 1.8 years
类型 internet

技术详情

分类 Payload
质量 730.00 kg
干质量 700.00 kg
总质量 730.00 kg
长度 0.30 m
直径 4.10 m
跨度 29.00 m
形状 Box + pan
制造商 SPXS
平台类型 Starlink V2M
阶段状态 In Orbit
所有者/国家 SPXS/US

大型星座

Loading constellations...